Cooperstown, ND

1:47 PM CDT on March 28, 2017 (GMT -0500)
Cooperstown

Weather History for KS32 - May, 2013

Change the Weather History Date:

Sunday, May 26, 2013

  Actual Average (KJMS) Record (KJMS)
Temperature  
Mean Temperature 54 °F -  
Max Temperature 59 °F 71 °F 101 °F (1934)
Min Temperature 50 °F 47 °F 29 °F (1961)
Degree Days  
Heating Degree Days 10    
Growing Degree Days 4 (Base 50)    
Moisture  
Dew Point 51 °F    
Average Humidity 90    
Maximum Humidity 100    
Minimum Humidity 77    
Precipitation  
Precipitation 0.00 in - - ()
Sea Level Pressure  
Sea Level Pressure 30.05 in    
Wind  
Wind Speed 19 mph (SE)    
Max Wind Speed 26 mph    
Max Gust Speed 32 mph    
Visibility 10 miles    
Events      
Averages and records for this station are not official NWS values.
T = Trace of Precipitation, MM = Missing Value Source: NWS Daily Summary

Daily Weather History Graph

Daily Weather History Graph

Search for Another Location

Airport or City:

Trip Planner

Search our weather history database for the weather conditions in past years. The results will help you decide how hot, cold, wet, or windy it might be!

Date:

Astronomy

May. 26, 2013 Rise Set
Actual Time 5:43 AM CDT 9:15 PM CDT
Civil Twilight 5:05 AM CDT 9:54 PM CDT
Nautical Twilight 4:14 AM CDT 10:45 PM CDT
Astronomical Twilight 3:06 AM CDT 11:54 PM CDT
Moon 11:02 PM CDT (5/26) 7:15 AM CDT (5/26)
Length of Visible Light 16h 48m
Length of Day
15h 32m
Waning Gibbous, 96% of the Moon is Illuminated
May 26
Waning Gibbous
May 31
Last Quarter
Jun 8
New
Jun 16
First Quarter
Jun 23
Full

Hourly Weather History & Observations

Time (CDT) Temp. Dew Point Humidity Pressure Visibility Wind Dir Wind Speed Gust Speed Precip Events Conditions
12:15 AM 53.6 °F 53.6 °F 100% 30.11 in 10.0 mi SE 15.0 mph 19.6 mph N/A   Overcast
12:35 AM 53.6 °F 53.6 °F 100% 30.10 in 10.0 mi SSE 21.9 mph 26.5 mph N/A   Overcast
12:55 AM 51.8 °F 51.8 °F 100% 30.11 in 9.0 mi SSE 19.6 mph 25.3 mph N/A   Overcast
1:15 AM 51.8 °F 51.8 °F 100% 30.11 in 10.0 mi SSE 23.0 mph 27.6 mph N/A   Overcast
1:35 AM 51.8 °F 51.8 °F 100% 30.11 in 10.0 mi SSE 17.3 mph 28.8 mph N/A   Overcast
1:55 AM 51.8 °F 51.8 °F 100% 30.09 in 10.0 mi SE 17.3 mph - N/A   Overcast
2:15 AM 51.8 °F 51.8 °F 100% 30.07 in 10.0 mi SE 17.3 mph 25.3 mph N/A   Overcast
2:35 AM 50.0 °F 50.0 °F 100% 30.07 in 10.0 mi SE 17.3 mph - N/A   Overcast
2:55 AM 50.0 °F 50.0 °F 100% 30.07 in 10.0 mi ESE 16.1 mph - N/A   Overcast
3:15 AM 50.0 °F 50.0 °F 100% 30.08 in 7.0 mi SE 16.1 mph - N/A   Overcast
3:35 AM 50.0 °F 50.0 °F 100% 30.09 in 8.0 mi SE 20.7 mph 27.6 mph N/A   Overcast
3:55 AM 50.0 °F 50.0 °F 100% 30.07 in 10.0 mi SE 20.7 mph 26.5 mph N/A   Overcast
4:15 AM 50.0 °F 50.0 °F 100% 30.06 in 10.0 mi SE 25.3 mph 32.2 mph N/A   Overcast
4:35 AM 50.0 °F 50.0 °F 100% 30.05 in 10.0 mi SE 26.5 mph 31.1 mph N/A   Overcast
4:55 AM 50.0 °F 50.0 °F 100% 30.06 in 10.0 mi SE 24.2 mph 31.1 mph N/A   Overcast
5:15 AM 50.0 °F 50.0 °F 100% 30.06 in 10.0 mi SE 24.2 mph 32.2 mph N/A   Overcast
5:35 AM 50.0 °F 50.0 °F 100% 30.06 in 10.0 mi SE 19.6 mph 27.6 mph N/A   Overcast
5:55 AM 50.0 °F 50.0 °F 100% 30.07 in 10.0 mi SE 23.0 mph 29.9 mph N/A   Overcast
6:15 AM 50.0 °F 50.0 °F 100% 30.09 in 10.0 mi SSE 17.3 mph 26.5 mph N/A   Overcast
6:35 AM 50.0 °F 50.0 °F 100% 30.09 in 10.0 mi SE 17.3 mph 21.9 mph N/A   Overcast
6:55 AM 50.0 °F 50.0 °F 100% 30.08 in 10.0 mi SE 16.1 mph 24.2 mph N/A   Overcast
7:15 AM 50.0 °F 50.0 °F 100% 30.08 in 10.0 mi SE 18.4 mph 23.0 mph N/A   Overcast
7:35 AM 50.0 °F 50.0 °F 100% 30.08 in 10.0 mi SE 17.3 mph 24.2 mph N/A   Overcast
7:55 AM 50.0 °F 50.0 °F 100% 30.08 in 10.0 mi SSE 20.7 mph - N/A   Overcast
8:15 AM 50.0 °F 50.0 °F 100% 30.07 in 10.0 mi SE 18.4 mph 25.3 mph N/A   Overcast
8:35 AM 50.0 °F 50.0 °F 100% 30.07 in 10.0 mi SE 20.7 mph 27.6 mph N/A   Overcast
8:55 AM 50.0 °F 50.0 °F 100% 30.06 in 10.0 mi ESE 21.9 mph - N/A   Overcast
9:15 AM 50.0 °F 50.0 °F 100% 30.07 in 10.0 mi SE 18.4 mph 25.3 mph N/A   Overcast
9:35 AM 51.8 °F 50.0 °F 94% 30.08 in 10.0 mi SE 23.0 mph 26.5 mph N/A   Overcast
9:55 AM 51.8 °F 50.0 °F 94% 30.05 in 10.0 mi SE 24.2 mph 28.8 mph N/A   Overcast
10:15 AM 51.8 °F 50.0 °F 94% 30.07 in 10.0 mi SSE 20.7 mph 26.5 mph N/A   Overcast
10:35 AM 50.0 °F 50.0 °F 100% 30.07 in 10.0 mi SSE 21.9 mph 26.5 mph N/A   Overcast
10:55 AM 50.0 °F 50.0 °F 100% 30.05 in 9.0 mi SSE 19.6 mph 25.3 mph N/A   Overcast
11:15 AM 51.8 °F 50.0 °F 94% 30.03 in 9.0 mi ESE 20.7 mph 25.3 mph N/A   Overcast
11:35 AM 53.6 °F 50.0 °F 88% 30.02 in 9.0 mi ESE 24.2 mph 28.8 mph N/A   Overcast
11:55 AM 53.6 °F 50.0 °F 88% 30.03 in 9.0 mi SE 21.9 mph 27.6 mph N/A   Overcast
12:15 PM 53.6 °F 50.0 °F 88% 30.06 in 10.0 mi SE 23.0 mph 27.6 mph N/A   Overcast
12:35 PM 53.6 °F 50.0 °F 88% 30.06 in 10.0 mi SE 23.0 mph - N/A   Overcast
12:55 PM 55.4 °F 50.0 °F 82% 30.05 in 10.0 mi SE 19.6 mph 25.3 mph N/A   Overcast
1:15 PM 55.4 °F 50.0 °F 82% 30.06 in 10.0 mi SE 23.0 mph 28.8 mph N/A   Overcast
1:35 PM 55.4 °F 50.0 °F 82% 30.07 in 10.0 mi SE 20.7 mph 28.8 mph N/A   Overcast
1:55 PM 57.2 °F 50.0 °F 77% 30.06 in 10.0 mi SE 20.7 mph 27.6 mph N/A   Overcast
2:15 PM 57.2 °F 50.0 °F 77% 30.06 in 10.0 mi SSE 19.6 mph - N/A   Overcast
2:35 PM 55.4 °F 50.0 °F 82% 30.06 in 10.0 mi SE 20.7 mph - N/A   Overcast
2:55 PM 55.4 °F 50.0 °F 82% 30.06 in 10.0 mi SSE 16.1 mph - N/A   Overcast
3:15 PM 57.2 °F 50.0 °F 77% 30.05 in 10.0 mi SSE 19.6 mph 25.3 mph N/A   Mostly Cloudy
3:35 PM 59.0 °F 51.8 °F 77% 30.05 in 10.0 mi SSE 19.6 mph 25.3 mph N/A   Mostly Cloudy
3:55 PM 59.0 °F 51.8 °F 77% 30.05 in 10.0 mi SE 18.4 mph 24.2 mph N/A   Mostly Cloudy
4:15 PM 59.0 °F 51.8 °F 77% 30.05 in 10.0 mi SE 19.6 mph 23.0 mph N/A   Mostly Cloudy
4:35 PM 57.2 °F 51.8 °F 82% 30.05 in 10.0 mi SSE 17.3 mph - N/A   Overcast
4:55 PM 57.2 °F 51.8 °F 82% 30.04 in 10.0 mi SSE 18.4 mph 21.9 mph N/A   Overcast
5:15 PM 57.2 °F 51.8 °F 82% 30.04 in 10.0 mi SSE 19.6 mph 24.2 mph N/A   Overcast
5:35 PM 57.2 °F 51.8 °F 82% 30.04 in 10.0 mi SE 18.4 mph 23.0 mph N/A   Overcast
5:55 PM 57.2 °F 51.8 °F 82% 30.04 in 10.0 mi SSE 17.3 mph 23.0 mph N/A   Overcast
6:15 PM 59.0 °F 53.6 °F 82% 30.03 in 10.0 mi SE 18.4 mph - N/A   Mostly Cloudy
6:35 PM 59.0 °F 53.6 °F 82% 30.03 in 10.0 mi SSE 19.6 mph 24.2 mph N/A   Mostly Cloudy
6:55 PM 59.0 °F 53.6 °F 82% 30.03 in 10.0 mi SE 19.6 mph 23.0 mph N/A   Mostly Cloudy
7:15 PM 59.0 °F 53.6 °F 82% 30.03 in 10.0 mi SE 16.1 mph - N/A   Mostly Cloudy
7:35 PM 59.0 °F 51.8 °F 77% 30.02 in 10.0 mi SE 16.1 mph - N/A   Mostly Cloudy
7:55 PM 57.2 °F 51.8 °F 82% 30.03 in 10.0 mi SE 13.8 mph 19.6 mph N/A   Overcast
8:15 PM 57.2 °F 51.8 °F 82% 30.03 in 10.0 mi SE 13.8 mph - N/A   Overcast
8:35 PM 57.2 °F 51.8 °F 82% 30.03 in 10.0 mi SSE 13.8 mph - N/A   Overcast
8:55 PM 57.2 °F 50.0 °F 77% 30.03 in 10.0 mi SSE 18.4 mph 21.9 mph N/A   Overcast
9:15 PM 57.2 °F 50.0 °F 77% 30.03 in 10.0 mi SSE 13.8 mph - N/A   Overcast
9:35 PM 55.4 °F 50.0 °F 82% 30.02 in 10.0 mi SE 17.3 mph 23.0 mph N/A   Overcast
9:55 PM 55.4 °F 50.0 °F 82% 30.02 in 10.0 mi SE 15.0 mph - N/A   Overcast
10:15 PM 55.4 °F 48.2 °F 77% 30.02 in 10.0 mi SE 12.7 mph - N/A   Overcast
10:35 PM 55.4 °F 48.2 °F 77% 30.01 in 10.0 mi SE 16.1 mph 20.7 mph N/A   Overcast
10:55 PM 53.6 °F 48.2 °F 82% 30.01 in 10.0 mi SE 12.7 mph - N/A   Mostly Cloudy
11:15 PM 53.6 °F 48.2 °F 82% 30.00 in 10.0 mi SE 12.7 mph 17.3 mph N/A   Mostly Cloudy
11:35 PM 51.8 °F 48.2 °F 88% 29.99 in 10.0 mi SE 9.2 mph - N/A   Partly Cloudy
11:55 PM 51.8 °F 48.2 °F 88% 29.98 in 10.0 mi SE 9.2 mph - N/A   Mostly Cloudy